LEMUR-2-THERESACONDOR

Last updated on Fri Mar 31 2017 00:15:05 GMT+0000 (Coordinated Universal Time)

1 41485U 98067JF 17088.87692783 .27372728 12750-4 18082-3 0 9995 2 41485 51.6095 34.9427 0004361 251.9905 115.0502 16.53312317 49553

Satellite not in orbit